Regional Weather Roundup
Issued by NWS

Home | Current Version | Previous Version | Text Only | Print | Product List | Glossary On
Versions: 1 2 3 4 5 6 7 8 9 10 11 12 13 14 15 16 17 18 19 20 21 22 23 24 25 26 27 28 29 30 31 32 33 34 35 36 37 38 39 40 41 42 43 44 45 46 47 48 49
000
ASUS42 KKEY 071510
RWRKEY

FLORIDA REGIONAL WEATHER ROUNDUP FOR THE FLORIDA KEYS
NATIONAL WEATHER SERVICE KEY WEST FLORIDA
1100 AM EDT TUE JUL 07 2015

...SOUTH FLORIDA AND THE KEYS...

CITY           SKY/WX    TMP DP  RH WIND       PRES   REMARKS
FORT MYERS     MOSUNNY   86  75  69 SE5       30.16F HX  95
SW REGIONAL AP MOSUNNY   86  75  69 SE7       30.17F HX  95
NAPLES         NOT AVBL
MIAMI          PTSUNNY   89  72  56 SE12      30.17S HX  96
WEST KENDALL   SUNNY     89  72  56 SE12      30.16S HX  96
HOMESTEAD      MOSUNNY   89  73  59 E10       30.16S HX  98
MARATHON       MOSUNNY   90  76  63 VRB3      30.16R HX 101
BOCA CHICA NAS MOSUNNY   87  74  64 E7        30.17R HX  95
KEY WEST INTL  MOSUNNY   88  76  67 E9        30.17R HX  99

...INTERNATIONAL WEATHER...

CITY           SKY/WX    TMP DP  RH WIND       PRES   REMARKS
NASSAU BAHAMAS MOSUNNY   90  79  70 E3        30.18S HX 105
CANCUN MEXICO  PTSUNNY   86  77  74 N7        30.10S HX  97
COZUMEL MEXICO PTSUNNY   81  77  89 NE10      30.10S

ADJACENT COASTAL WATERS...

STATION/POSITION TIME  SKY/WX   TEMP    WIND        PRES    WAVE
                                AIR SEA DIR/SP/G            HT/PER
                 (UTC)          (F)     (DEG/KT/KT) (MB)    (FT/S)
PULASKI SHOAL LI 1400            85     130/ 11/ 12 1020.9R
SAND KEY         1450            84     130/  9/ 11 1021.3R
SOMBRERO KEY     1500            85     120/  7/  8 1022.1R
LONG KEY         1400            85 86  130/  8/ 10 1021.9R
MOLASSES REEF    1500            84 86  100/  5/  6 1021.6R
FOWEY ROCKS      NOT AVBL

$$


USA.gov is the U.S. government's official web portal to all federal, state and local government web resources and services.